DE17H LFMN-LIML

Flight info

Callsign DE17H
Flight time N/A
Altitude 25000
Route BASIP Y15 EGHIN DCT ANAKI DCT GEN
Aircraft C750/M-SBDE3FGHRWXY/S

Departure

Time 2026-05-05 15:28
Airport Nice-Côte d'Azur Airport (LFMN)

Arrival

Time N/A
Airport Milano Linate Airport (LIML)
Time Latitude Longitude Altitude Speed Heading
2026-05-05 15:11 43.65452 7.20340 19 ft 0 kts 135°
2026-05-05 15:20 43.65448 7.20346 19 ft 1 kts 132°
2026-05-05 15:20 43.65438 7.20356 19 ft 1 kts 152°
2026-05-05 15:21 43.65423 7.20361 19 ft 2 kts 178°
2026-05-05 15:21 43.65400 7.20351 19 ft 4 kts 218°
2026-05-05 15:21 43.65367 7.20320 17 ft 7 kts 207°
2026-05-05 15:21 43.65320 7.20300 17 ft 6 kts 187°
2026-05-05 15:22 43.65276 7.20303 17 ft 6 kts 161°
2026-05-05 15:22 43.65245 7.20337 17 ft 5 kts 130°
2026-05-05 15:22 43.65221 7.20373 17 ft 4 kts 129°
2026-05-05 15:22 43.65199 7.20404 17 ft 4 kts 135°
2026-05-05 15:23 43.65180 7.20430 17 ft 3 kts 135°
2026-05-05 15:23 43.65162 7.20454 17 ft 4 kts 134°
2026-05-05 15:23 43.65138 7.20489 17 ft 5 kts 134°
2026-05-05 15:23 43.65113 7.20520 17 ft 4 kts 169°
2026-05-05 15:24 43.65086 7.20511 17 ft 3 kts 195°
2026-05-05 15:24 43.65062 7.20500 17 ft 3 kts 203°
2026-05-05 15:24 43.65041 7.20487 17 ft 3 kts 209°
2026-05-05 15:24 43.65022 7.20470 17 ft 3 kts 215°
2026-05-05 15:25 43.64996 7.20442 17 ft 5 kts 220°
2026-05-05 15:25 43.64959 7.20396 17 ft 9 kts 222°
2026-05-05 15:25 43.64891 7.20303 16 ft 17 kts 218°
2026-05-05 15:25 43.64771 7.20188 14 ft 23 kts 193°
2026-05-05 15:26 43.64701 7.20293 16 ft 12 kts 28°
2026-05-05 15:26 43.64741 7.20349 16 ft 11 kts 46°
2026-05-05 15:26 43.64845 7.20483 17 ft 33 kts 44°
2026-05-05 15:26 43.65105 7.20838 19 ft 72 kts 45°
2026-05-05 15:27 43.65562 7.21467 20 ft 110 kts 43°
2026-05-05 15:27 43.66162 7.22300 26 ft 134 kts 46°
2026-05-05 15:27 43.66893 7.23203 106 ft 147 kts 42°
2026-05-05 15:27 43.67627 7.24118 499 ft 139 kts 52°
2026-05-05 15:28 43.67928 7.25347 774 ft 142 kts 100°
2026-05-05 15:28 43.67459 7.26532 1182 ft 146 kts 131°
2026-05-05 15:28 43.66738 7.27573 1567 ft 153 kts 133°
2026-05-05 15:28 43.65993 7.28652 1939 ft 160 kts 133°
2026-05-05 15:29 43.65212 7.29803 2323 ft 167 kts 133°
2026-05-05 15:29 43.64410 7.30995 2697 ft 175 kts 133°
2026-05-05 15:29 43.63603 7.32299 3058 ft 183 kts 118°
2026-05-05 15:29 43.63446 7.34034 3450 ft 189 kts 77°
2026-05-05 15:30 43.63868 7.35772 3843 ft 195 kts 71°
2026-05-05 15:30 43.64333 7.37562 4197 ft 203 kts 70°
2026-05-05 15:30 43.64840 7.39424 4540 ft 212 kts 70°
2026-05-05 15:30 43.65365 7.41330 4960 ft 217 kts 69°
2026-05-05 15:31 43.65908 7.43291 5405 ft 220 kts 69°
2026-05-05 15:31 43.66462 7.45267 5851 ft 223 kts 69°
2026-05-05 15:31 43.67010 7.47256 6296 ft 225 kts 69°
2026-05-05 15:31 43.67560 7.49253 6830 ft 224 kts 69°
2026-05-05 15:32 43.68106 7.51311 7547 ft 238 kts 69°
2026-05-05 15:32 43.68693 7.53516 8322 ft 252 kts 70°
2026-05-05 15:32 43.69303 7.55810 9105 ft 264 kts 70°
2026-05-05 15:32 43.69953 7.58260 9885 ft 277 kts 70°
2026-05-05 15:33 43.70618 7.60757 10641 ft 288 kts 70°
2026-05-05 15:33 43.71313 7.63382 11404 ft 298 kts 71°
2026-05-05 15:33 43.72029 7.66086 12153 ft 307 kts 71°
2026-05-05 15:33 43.72767 7.68880 12886 ft 316 kts 72°
2026-05-05 15:34 43.73649 7.71685 13601 ft 325 kts 56°
2026-05-05 15:34 43.75121 7.74054 14431 ft 328 kts 47°
2026-05-05 15:34 43.76637 7.76401 15298 ft 329 kts 49°
2026-05-05 15:34 43.78141 7.78748 16186 ft 329 kts 49°
2026-05-05 15:35 43.79649 7.81112 17092 ft 327 kts 49°
2026-05-05 15:35 43.81136 7.83440 17975 ft 323 kts 49°
2026-05-05 15:35 43.82453 7.85510 18754 ft 319 kts 49°
2026-05-05 15:35 43.83919 7.87815 19590 ft 316 kts 49°
2026-05-05 15:36 43.85344 7.90061 20368 ft 312 kts 49°
2026-05-05 15:36 43.86767 7.92299 21096 ft 309 kts 48°
2026-05-05 15:36 43.88167 7.94497 21822 ft 305 kts 48°
2026-05-05 15:36 43.89586 7.96647 22540 ft 299 kts 37°
2026-05-05 15:37 43.91070 7.98590 23266 ft 292 kts 52°
2026-05-05 15:37 43.92276 8.00744 23990 ft 282 kts 50°
2026-05-05 15:37 43.93492 8.02811 24704 ft 272 kts 48°
2026-05-05 15:37 43.94737 8.04830 24918 ft 286 kts 47°
2026-05-05 15:38 43.96075 8.06959 25004 ft 305 kts 47°
2026-05-05 15:38 43.97535 8.09272 24996 ft 327 kts 47°
2026-05-05 15:38 43.99075 8.11720 25005 ft 348 kts 47°
2026-05-05 15:38 44.00712 8.14319 25092 ft 365 kts 47°
2026-05-05 15:39 44.02400 8.17003 25312 ft 378 kts 47°
2026-05-05 15:39 44.04138 8.19764 25528 ft 390 kts 47°
2026-05-05 15:39 44.05789 8.22793 25833 ft 388 kts 63°
2026-05-05 15:39 44.06839 8.26203 26014 ft 382 kts 70°
2026-05-05 15:40 44.07783 8.29554 26299 ft 374 kts 70°
2026-05-05 15:40 44.08750 8.32910 26553 ft 368 kts 69°
2026-05-05 15:40 44.09687 8.36169 26712 ft 365 kts 69°
2026-05-05 15:40 44.10632 8.39447 26803 ft 364 kts 69°
2026-05-05 15:41 44.11570 8.42703 26845 ft 364 kts 69°
2026-05-05 15:41 44.12511 8.45976 26874 ft 365 kts 69°
2026-05-05 15:41 44.13439 8.49208 26916 ft 366 kts 70°
2026-05-05 15:41 44.14384 8.52495 26963 ft 366 kts 69°
2026-05-05 15:42 44.15327 8.55791 27016 ft 366 kts 69°
2026-05-05 15:42 44.16260 8.59048 27075 ft 366 kts 69°
2026-05-05 15:42 44.17202 8.62334 27124 ft 366 kts 70°
2026-05-05 15:42 44.18143 8.65648 27173 ft 367 kts 70°
2026-05-05 15:43 44.19089 8.68952 27233 ft 366 kts 70°
2026-05-05 15:43 44.20061 8.72170 27250 ft 367 kts 61°
2026-05-05 15:43 44.21628 8.75074 26951 ft 377 kts 46°
2026-05-05 15:43 44.23381 8.77780 26896 ft 379 kts 47°
2026-05-05 15:44 44.25120 8.80518 27042 ft 376 kts 47°
2026-05-05 15:44 44.26833 8.83246 27062 ft 377 kts 47°
2026-05-05 15:44 44.28564 8.85996 27022 ft 379 kts 47°
2026-05-05 15:44 44.30269 8.88744 27292 ft 370 kts 48°
2026-05-05 15:45 44.31938 8.91409 27619 ft 361 kts 47°
2026-05-05 15:45 44.33599 8.94043 27489 ft 369 kts 47°
2026-05-05 15:45 44.35325 8.96801 27252 ft 380 kts 47°
2026-05-05 15:45 44.37074 8.99601 27106 ft 387 kts 47°
2026-05-05 15:46 44.38829 9.02421 27336 ft 381 kts 47°
2026-05-05 15:46 44.40560 9.05158 27785 ft 368 kts 41°
2026-05-05 15:46 44.42625 9.07183 27509 ft 370 kts 16°
2026-05-05 15:46 44.45126 9.07834 27140 ft 360 kts 347°
2026-05-05 15:47 44.47559 9.07301 27390 ft 348 kts 342°
2026-05-05 15:47 44.49134 9.06948 27540 ft 346 kts 343°
2026-05-05 15:47 44.52313 9.06295 27659 ft 347 kts 343°
2026-05-05 15:47 44.54724 9.05801 27659 ft 350 kts 343°
2026-05-05 15:48 44.57125 9.05323 27668 ft 352 kts 344°
2026-05-05 15:48 44.59564 9.04842 27705 ft 354 kts 344°
2026-05-05 15:48 44.61999 9.04357 27770 ft 354 kts 344°
2026-05-05 15:48 44.64453 9.03869 27853 ft 354 kts 344°
2026-05-05 15:49 44.66882 9.03377 27518 ft 369 kts 343°
2026-05-05 15:49 44.69496 9.02823 27103 ft 383 kts 345°
2026-05-05 15:49 44.72140 9.02294 27046 ft 387 kts 344°
2026-05-05 15:49 44.74828 9.01718 27061 ft 389 kts 344°
2026-05-05 15:50 44.77523 9.01136 27055 ft 392 kts 344°
2026-05-05 15:50 44.80214 9.00554 27055 ft 395 kts 344°
2026-05-05 15:50 44.82940 8.99961 27055 ft 397 kts 344°
2026-05-05 15:50 44.85685 8.99367 27052 ft 399 kts 344°
2026-05-05 15:51 44.88405 8.98776 27055 ft 401 kts 345°
2026-05-05 15:51 44.91195 8.98168 27054 ft 403 kts 344°
2026-05-05 15:51 44.93946 8.97569 27058 ft 399 kts 345°
2026-05-05 15:51 44.96631 8.97075 26998 ft 387 kts 351°
2026-05-05 15:52 44.99376 8.97181 26096 ft 399 kts 358°
2026-05-05 15:52 45.02104 8.97418 25178 ft 394 kts 358°
2026-05-05 15:52 45.04807 8.97641 24263 ft 388 kts 358°
2026-05-05 15:52 45.07454 8.97837 23259 ft 381 kts 358°
2026-05-05 15:53 45.10056 8.98035 22247 ft 374 kts 358°
2026-05-05 15:53 45.12637 8.98225 21230 ft 369 kts 358°
2026-05-05 15:53 45.15167 8.98416 20125 ft 366 kts 358°
2026-05-05 15:53 45.17659 8.98603 18850 ft 365 kts 359°
2026-05-05 15:54 45.20185 8.98792 17578 ft 362 kts 359°
2026-05-05 15:54 45.22623 8.98976 16588 ft 351 kts 359°
2026-05-05 15:54 45.25016 8.99334 15811 ft 336 kts 12°
2026-05-05 15:54 45.27049 9.00663 15211 ft 322 kts 35°
2026-05-05 15:55 45.28566 9.02931 14247 ft 318 kts 60°
2026-05-05 15:55 45.29127 9.04495 13755 ft 312 kts 71°
2026-05-05 15:56 45.29425 9.06798 13241 ft 293 kts 95°
2026-05-05 15:56 45.29200 9.09461 13273 ft 251 kts 110°
2026-05-05 15:56 45.28466 9.11563 12738 ft 242 kts 133°
2026-05-05 15:57 45.27356 9.13371 11981 ft 245 kts 142°
2026-05-05 15:57 45.26026 9.14755 11466 ft 232 kts 155°
2026-05-05 15:57 45.24548 9.15448 10885 ft 223 kts 179°
2026-05-05 15:57 45.23128 9.14875 10328 ft 207 kts 229°
2026-05-05 15:58 45.22648 9.13292 10628 ft 169 kts 269°
2026-05-05 15:58 45.22997 9.11657 9691 ft 206 kts 278°
2026-05-05 15:58 45.22522 9.09941 9184 ft 193 kts 193°
2026-05-05 15:58 45.21164 9.09891 8830 ft 195 kts 176°
2026-05-05 15:59 45.20033 9.10109 9515 ft 140 kts 174°
2026-05-05 15:59 45.19027 9.10342 9185 ft 169 kts 174°
2026-05-05 15:59 45.17755 9.10600 8887 ft 186 kts 174°
2026-05-05 15:59 45.16598 9.10846 9448 ft 154 kts 174°
2026-05-05 16:00 45.15480 9.11101 8991 ft 185 kts 174°
2026-05-05 16:00 45.14085 9.11384 7840 ft 224 kts 174°
2026-05-05 16:00 45.12465 9.11673 6700 ft 249 kts 174°
2026-05-05 16:00 45.11309 9.11865 5923 ft 260 kts 174°
2026-05-05 16:01 45.08960 9.12242 5000 ft 246 kts 174°
2026-05-05 16:01 45.07356 9.12501 4907 ft 218 kts 173°